Tracking 30995 objects as of 7-Jul-2025
HD Live streaming from Space Station
objects crossing your sky now

COSMOS 1691 DEB

Track COSMOS 1691 DEB now!
10-day predictions


NORAD ID: 19111
Int'l Code: 1985-094V
Perigee: 1,381.2 km
Apogee: 1,396.4 km
Inclination: 82.6 °
Period: 113.4 minutes
Semi major axis: 7759 km
RCS: 0.0114 m2 (small)
Launch date: October 9, 1985
Source: Commonwealth of Independent States (former USSR) (CIS)
Launch site: PLESETSK MISSILE AND SPACE COMPLEX (PKMTR)

Note: This is SATELLITE DEBRIS
Your satellite tracking list
Your tracking list is empty




NASA's NSSDC Master Catalog

Two Line Element Set (TLE):
1 19111U 85094W   25186.65806997  .00000225  00000-0  10786-2 0  9994
2 19111  82.6049  68.5832 0009749 113.2187 274.5553 12.70069591729300
Source of the keplerian elements: AFSPC